Terminal Aerodrome Forecast
Issued by NWS Sterling, VA

Current Version | Previous Version | Graphics & Text | Print | Product List | Glossary On
Versions: 1 2 3 4 5 6 7 8 9 10 11 12 13 14 15 16 17 18 19 20 21 22
000
FTUS41 KLWX 221600 AAC
TAFDCA
TAF AMD
KDCA 221628Z 2216/2312 35016G23KT 6SM -RA BR SCT020 OVC030
     FM222000 34017G25KT P6SM OVC035
     FM230900 31015KT P6SM BKN030=

USA.gov is the U.S. government's official web portal to all federal, state and local government web resources and services.